Location: Lake Arresoe
(56.0000°N, 12.5000°E)
Time: 06:56:50
(UTC+02:00)

Cosmos 1674 - Pass Details

Date: 31 July 2021
Orbit: 491 x 516 km, 82.5° (Epoch: 19 September)

Event Time Altitude Azimuth Distance (km) Brightness Sun altitude
Rises 02:30:36 0° 354° (N) 2,655 7.6 -14.1°
Reaches altitude 10° 02:33:01 10° 7° (N) 1,763 6.7 -14.0°
Maximum altitude 02:36:20 26° 66° (ENE) 1,039 4.7 -13.9°
Drops below altitude 10° 02:39:37 10° 125° (SE) 1,747 5.2 -13.7°
Enters shadow 02:41:43 - 137° (SE) 2,523 5.9 -13.6°
